Regional Weather Roundup
Issued by NWS

Home | Current Version | Previous Version | Graphics & Text | Print | Product List | Glossary On
Versions: 1 2 3 4 5 6 7 8 9 10 11 12 13 14 15 16 17 18 19 20 21 22 23 24 25 26 27 28
000
ASUS45 KPSR 250810
RWRAZ

ARIZONA HOURLY REGIONAL WEATHER ROUNDUP
NATIONAL WEATHER SERVICE PHOENIX AZ
100 AM MST SUN SEP 25 2016

NOTE: FAIR INDICATES FEW OR NO CLOUDS BELOW 12,000 FEET WITH NO
SIGNIFICANT WEATHER AND/OR OBSTRUCTIONS TO VISIBILITY.

AZZ001>003-036-250900-
NORTHWEST ARIZONA

CITY           SKY/WX    TMP DP  RH WIND       PRES   REMARKS
BULLHEAD CITY  CLEAR     77  32  19 N12       30.03R
KINGMAN        CLEAR     57  32  38 E7        30.17S
$$

AZZ004>008-015-016-018-250900-
NORTH CENTRAL ARIZONA

CITY           SKY/WX    TMP DP  RH WIND       PRES   REMARKS
GRAND CANYON   CLEAR     47  35  63 VRB5      30.34F
PRESCOTT       CLEAR     48  38  68 CALM      30.24R
FLAGSTAFF      PTCLDY    50  31  48 NE14G23   30.33R
PAYSON         CLEAR     61  30  31 NE23      30.23R
PAGE           CLEAR     62  35  36 N10       30.29R
$$

AZZ009>014-017-250900-
NORTHEAST ARIZONA

CITY           SKY/WX    TMP DP  RH WIND       PRES   REMARKS
WINSLOW        CLEAR     44  26  49 W5        30.27R
SAINT JOHNS    CLEAR     42  33  70 CALM      30.26R
WINDOW ROCK    CLEAR     37  30  75 CALM      30.32R
SHOW LOW       CLEAR     41  23  48 NE5       30.30R
$$

AZZ023-250900-
GREATER PHOENIX AREA

CITY           SKY/WX    TMP DP  RH WIND       PRES   REMARKS
PHOENIX        CLEAR     76  38  25 W5        29.95R
BUCKEYE        CLEAR     81  32  17 N15       29.96R
LUKE AFB       CLEAR     77  36  22 NE5       29.95R
DEER VALLEY    CLEAR     75  32  20 N10       29.98R
SCOTTSDALE     CLEAR     77  31  18 NE10      29.99R
MESA-GATEWAY   CLEAR     68  30  24 CALM      29.97R
$$

AZZ027-028-250900-
SOUTHWEST MARICOPA COUNTY AND PINAL COUNTY

CITY           SKY/WX    TMP DP  RH WIND       PRES   REMARKS
CASA GRANDE    CLEAR     64  27  24 NE3       29.97S
GILA BEND      FAIR      68  31  25 SW5       29.92R
$$

AZZ503-504-507>509-250900-
SOUTHEAST ARIZONA

CITY           SKY/WX    TMP DP  RH WIND       PRES   REMARKS
TUCSON         CLEAR     62  29  28 SE7       30.03F
DAVIS-MONTHAN  CLEAR     59  30  33 SE7       30.02F
NOGALES        CLEAR     52  32  46 SE3       30.09S
SIERRA VISTA   MOCLDY    60  24  25 SW7       30.13F
DOUGLAS        CLEAR     57  32  38 N5        30.08F
SAFFORD        CLEAR     61  29  29 NW7       30.02S
$$

AZZ020-021-025-026-031-250900-
SOUTHWEST ARIZONA

CITY           SKY/WX    TMP DP  RH WIND       PRES   REMARKS
YUMA           CLEAR     76  34  21 CALM      29.91F
$$

CAZ031-033-041-043-047-048-061-250900-
SOUTHERN CALIFORNIA

CITY           SKY/WX    TMP DP  RH WIND       PRES   REMARKS
DOWNTOWN L.A.  CLEAR     68  51  54 E5        29.97R
L.A. AIRPORT   CLEAR     66  51  58 E6        29.97R
SAN DIEGO      CLEAR     72  50  46 CALM        N/A
BURBANK        CLEAR     69  37  30 CALM      29.98S
ONTARIO        CLEAR     68  36  30 NE5       30.00S
RIVERSIDE      CLEAR     74  34  23 SE3       30.00S
PALM SPRINGS   CLEAR     81  36  19 NW6       29.98F
EL CENTRO NAS  CLEAR     70  32  24 W6        29.94F
IMPERIAL       CLEAR     71  41  33 W5        29.92F
BLYTHE         CLEAR     78  31  17 N13       29.96S
NEEDLES        CLEAR     79  31  17 N7        30.03R
$$

NVZ020-UTZ003-250900-
SOUTHERN NEVADA-UTAH

CITY           SKY/WX    TMP DP  RH WIND       PRES   REMARKS
LAS VEGAS      CLEAR     73  29  19 NE5       30.16R
SALT LAKE CITY CLEAR     48  43  82 SE6       30.40S
$$

NMZ009-TXZ055-250900-
NEW MEXICO-WEST TEXAS

CITY           SKY/WX    TMP DP  RH WIND       PRES   REMARKS
ALBUQUERQUE    CLEAR     56  34  43 NW6       30.22R
EL PASO        PTCLDY    64  39  39 E5        30.03R
$$


........................KEY........................
SKY/WX - SKY CONDITION/WEATHER
TMP    - TEMPERATURE IN FAHRENHEIT
DP     - DEW POINT IN FAHRENHEIT
RH     - RELATIVE HUMIDITY IN PERCENT
WIND   - DIRECTION AND SPEED IN MILES PER HOUR (MPH)
VRB    - VARIABLE WIND DIRECTION
PRES   - MEAN SEA LEVEL PRESSURE IN INCHES OF MERCURY
         F - FALLING PRESSURE   R - RISING PRESSURE
         S - STEADY PRESSURE
VSB    - VISIBILITY IN MILES
HX     - HEAT INDEX IN FAHRENHEIT
WCI    - WIND CHILL INDEX IN FAHRENHEIT
TC     - TEMPERATURE IN CELSIUS WHICH IS ALSO KNOWN AS
         TEMPERATURE IN CENTIGRADE
AFB    - AIR FORCE BASE
         LUKE AFB IS LUKE AIR FORCE BASE
         DAVIS-MONTHAN IS DAVIS-MONTHAN AIR FORCE BASE
NAS    - NAVAL AIR STATION
         EL CENTRO NAS IS EL CENTRO NAVAL AIR STATION
N/A    - NOT AVAILABLE





USA.gov is the U.S. government's official web portal to all federal, state and local government web resources and services.